Wind_Speed
7 7 7 7 7 8 8 8 8 8 9 9 9 9 9 8 9 9 8 8 8 8 8 8 8 8 9 9 9 9 9 9 9 10 10 10 11 12 12 13 13 13 13
7 7 7 8 8 9 9 9 9 9 9 9 9 9 8 8 9 9 8 8 8 8 9 9 9 9 9 9 9 9 10 10 10 10 10 11 11 12 12 13 13 13 14
7 8 8 9 9 9 9 9 9 10 10 9 9 9 8 8 8 8 8 8 8 9 10 10 10 10 10 10 10 11 11 11 11 11 11 12 12 13 13 12 12 13 14
8 8 8 9 9 9 10 10 9 9 9 9 9 8 8 9 8 8 8 8 9 9 10 10 11 11 11 11 11 12 12 12 12 12 12 13 13 13 13 13 13 13 14
9 9 9 9 9 9 10 10 10 10 10 9 9 9 9 10 10 10 10 10 10 10 11 11 11 12 12 12 12 12 13 13 13 13 13 13 13 13 13 13 14 14 14
10 10 10 10 10 10 11 11 11 10 10 10 10 10 11 11 11 12 12 12 12 12 12 11 12 12 13 13 13 14 14 14 14 14 14 14 14 14 14 14 14 14 14
10 10 10 11 11 11 11 12 12 12 12 12 12 12 12 13 13 14 14 14 13 13 13 13 13 13 14 14 14 14 15 15 15 15 15 15 15 15 15 15 15 14 14
11 11 12 11 11 12 12 12 13 13 14 14 13 13 14 14 14 15 15 15 15 15 15 15 15 15 15 15 15 16 16 16 16 16 16 16 16 16 16 15 15 15 15
12 12 12 13 13 13 14 14 14 14 15 15 15 15 15 15 14 14 16 16 16 16 16 16 16 16 16 16 17 17 17 17 17 17 17 17 17 16 16 16 16 16 16
13 13 13 13 14 14 15 15 15 15 15 16 17 17 16 16 16 16 16 16 17 18 17 17 18 18 17 18 18 18 18 19 19 19 18 17 17 17 17 16 16 17 17
14 14 14 15 15 16 16 17 17 17 16 16 17 18 18 18 18 17 17 17 19 19 19 19 19 19 19 19 19 19 20 19 19 19 18 18 18 18 18 18 18 18 19
15 15 16 16 17 17 17 18 18 18 18 18 18 18 18 19 19 18 19 19 19 20 20 20 20 20 20 21 21 20 20 20 20 20 20 20 20 20 20 20 20 20 20
17 17 17 17 17 17 18 18 19 19 19 19 19 19 19 19 19 19 19 20 20 19 20 21 21 21 21 21 21 21 21 21 21 21 21 22 22 22 21 21 21 20 20
18 18 18 18 19 19 19 19 19 19 20 19 20 20 20 20 20 19 20 20 21 21 21 21 21 22 22 22 22 22 22 22 22 22 22 22 22 22 22 22 22 22 21
20 19 20 20 20 20 20 20 20 20 20 20 21 21 21 21 20 20 20 20 20 21 22 22 23 23 23 23 23 23 23 22 22 22 23 23 23 23 22 22 23 23 23
20 21 21 21 21 22 22 22 21 21 21 21 21 22 22 22 22 22 21 21 21 22 23 23 24 23 23 24 23 23 24 23 23 23 24 24 24 24 24 24 25 25 24
22 22 22 22 22 23 23 23 23 22 22 22 22 22 22 23 23 23 23 23 23 23 24 24 25 25 25 25 25 25 25 25 25 25 25 25 25 25 25 25 26 26 26
23 23 23 24 24 24 24 24 24 24 24 23 23 23 23 23 24 24 24 25 25 25 25 25 25 25 26 26 26 26 26 26 27 27 27 27 27 27 27 27 27 27 27
25 25 25 25 25 25 26 26 26 26 26 25 25 25 25 25 25 25 25 26 27 27 27 27 27 27 27 27 27 28 28 27 27 27 28 29 29 29 29 29 29 29 29
26 26 26 25 25 26 26 27 27 27 27 27 27 27 27 27 27 27 27 28 28 29 29 29 28 28 29 29 29 29 29 29 29 30 30 30 30 31 31 31 31 31 30
28 27 27 27 27 27 27 27 27 28 28 28 28 28 28 28 28 28 29 29 29 29 29 30 30 31 31 31 31 31 30 30 30 31 31 32 32 32 32 33 33 33 33
29 28 28 28 29 29 28 28 28 28 28 28 28 29 29 29 29 29 29 30 30 30 30 30 31 32 32 32 32 32 31 31 31 31 32 32 33 33 34 33 33 34 34
30 30 30 30 30 30 29 29 29 29 29 29 29 30 30 31 30 30 30 31 31 31 31 31 32 32 32 32 33 33 33 33 33 33 33 34 34 34 34 34 34 34 33
30 30 30 30 31 31 31 30 31 31 30 30 30 31 31 31 31 31 31 31 31 32 32 32 32 32 33 33 34 34 35 35 35 35 35 36 36 36 36 36 35 34 34
31 31 32 32 32 32 32 32 32 32 32 32 32 32 32 32 32 32 33 33 33 33 33 33 34 34 34 35 35 35 36 36 37 37 37 37 37 36 37 37 37 36 35
32 32 32 32 33 33 33 33 33 33 33 33 33 33 33 33 33 33 34 34 34 34 34 34 34 34 35 35 36 37 38 38 39 39 38 38 37 37 37 37 37 38 37
Wind_Direction
266 265 269 266 265 263 264 267 270 273 274 269 269 271 272 272 274 277 279 282 284 287 288 287 288 291 291 291 290 289 289 292 293 292 287 282 279 279 277 276 276 275 275
268 264 263 263 264 265 268 271 273 274 275 274 270 269 272 273 275 274 276 279 281 285 285 286 286 287 290 291 291 294 294 294 295 293 291 288 286 286 284 283 279 279 278
273 270 266 267 267 269 271 274 274 274 272 274 271 271 275 276 275 276 278 281 282 285 284 287 285 288 291 292 293 295 294 292 293 291 291 290 288 286 286 286 284 279 277
275 276 274 273 273 273 273 274 275 275 276 277 275 274 273 273 272 274 279 282 283 285 286 286 286 288 290 290 290 291 293 291 289 290 290 290 288 285 285 285 283 281 279
279 278 277 276 276 276 277 277 276 275 273 274 274 273 272 273 273 276 277 281 282 283 284 283 284 286 289 291 290 288 290 289 286 286 288 289 289 286 285 285 284 282 280
285 281 279 280 280 278 278 279 277 276 275 278 279 278 275 275 276 277 278 280 280 282 283 281 283 286 289 291 290 289 288 287 285 284 284 286 286 285 284 282 281 281 281
285 282 283 283 282 279 278 278 277 278 278 277 277 280 279 277 273 273 276 277 277 279 280 280 282 286 287 289 290 288 287 287 287 287 286 285 285 284 283 282 278 278 279
284 283 284 284 284 283 281 280 277 276 276 277 275 277 279 280 279 275 275 275 275 276 277 277 280 283 284 285 287 288 288 288 287 287 286 286 285 284 281 280 278 277 277
285 283 283 283 282 282 280 278 277 276 275 275 276 276 277 279 281 279 275 274 274 275 276 277 278 280 282 283 285 287 287 286 285 285 284 284 283 282 280 279 277 275 274
286 282 282 282 281 280 278 276 276 277 277 276 275 276 277 278 277 276 276 274 273 274 275 275 277 278 280 281 282 283 285 285 284 283 281 280 281 282 281 281 279 276 275
286 283 282 282 283 282 283 280 277 277 277 277 277 275 275 275 276 276 277 277 274 275 274 275 275 276 277 278 280 281 283 283 282 282 281 279 279 280 280 279 279 278 278
286 284 283 284 284 285 285 284 281 279 278 278 279 279 279 278 277 278 278 279 278 275 274 274 274 277 278 278 279 280 281 281 280 280 280 279 279 279 279 278 279 279 278
289 286 285 284 285 286 286 284 281 279 278 277 278 280 280 278 276 275 277 278 279 278 277 275 273 275 277 278 278 279 279 278 279 278 278 279 279 280 279 277 277 277 277
289 288 286 284 285 285 285 284 281 280 278 277 277 277 278 279 277 277 278 280 279 279 278 277 275 276 277 278 278 278 277 277 278 278 278 278 279 281 280 278 277 276 276
287 288 286 284 284 283 282 281 281 281 280 279 278 278 278 279 278 277 278 280 280 278 278 279 278 276 276 277 277 277 276 275 276 276 277 277 278 279 279 278 277 277 276
287 287 287 285 284 282 281 280 280 280 281 281 281 280 279 279 278 277 278 279 280 280 279 279 278 278 277 276 276 277 276 275 274 275 276 276 277 278 277 277 277 277 277
287 288 288 286 285 283 281 280 280 280 280 280 280 280 279 278 277 277 278 279 279 280 280 280 279 279 279 277 276 276 275 274 273 273 274 275 277 277 277 277 277 276 276
288 287 287 286 284 283 281 279 279 279 279 279 279 279 279 278 277 277 278 278 278 278 279 280 280 278 278 278 277 276 275 274 273 272 272 273 275 277 277 277 277 277 277
287 288 288 287 284 282 280 279 278 278 278 278 278 278 278 278 278 277 278 279 279 279 278 278 279 279 278 278 278 276 276 274 273 273 272 272 273 275 276 277 276 276 278
287 288 289 287 285 283 282 280 279 278 277 277 277 277 277 278 277 277 278 278 279 279 279 277 277 278 279 278 277 277 276 275 274 274 273 273 273 273 275 276 276 276 277
288 289 288 287 285 284 283 282 281 279 278 277 277 277 277 278 278 278 278 278 278 279 279 278 277 277 277 277 276 277 277 276 275 275 275 274 275 275 275 275 274 275 275
289 290 289 287 285 284 284 283 282 281 280 278 278 278 278 278 279 279 279 278 278 279 278 279 278 279 278 278 277 276 276 276 276 276 276 277 277 276 275 275 274 273 273
289 289 288 287 287 285 284 283 282 281 280 280 279 279 279 279 278 278 278 278 278 278 279 278 278 278 277 277 276 275 275 276 276 275 276 276 277 277 276 274 273 273 273
288 288 287 286 285 284 284 283 282 282 281 280 280 280 280 279 279 278 278 278 279 279 279 278 279 278 276 277 277 276 276 276 276 276 276 277 277 276 277 275 272 271 272
288 288 287 286 285 284 283 283 283 281 281 281 281 281 280 280 279 278 278 278 279 279 279 278 278 278 277 276 274 275 276 276 277 276 276 276 277 276 276 275 273 271 272
288 289 288 287 286 284 283 283 282 282 282 281 280 280 281 281 280 280 279 279 280 280 279 278 279 279 278 277 276 276 276 276 277 277 278 278 277 276 275 274 273 272 271
Height
5852 5852 5852 5851 5851 5851 5851 5851 5851 5851 5850 5850 5850 5850 5849 5849 5849 5848 5848 5847 5847 5846 5845 5845 5845 5844 5843 5843 5842 5841 5841 5840 5839 5839 5838 5838 5837 5836 5836 5836 5836 5835 5835
5850 5850 5850 5850 5849 5849 5849 5849 5849 5848 5848 5848 5848 5847 5847 5847 5847 5846 5846 5845 5845 5844 5844 5843 5842 5842 5841 5840 5840 5839 5838 5838 5837 5837 5836 5835 5835 5834 5833 5833 5832 5832 5832
5849 5848 5848 5848 5847 5847 5847 5846 5846 5846 5846 5846 5845 5845 5844 5845 5845 5844 5844 5843 5843 5842 5841 5841 5840 5839 5839 5838 5837 5837 5836 5836 5835 5834 5834 5833 5832 5831 5830 5829 5829 5828 5828
5847 5846 5846 5846 5845 5845 5844 5844 5844 5844 5843 5843 5843 5842 5842 5842 5842 5842 5841 5841 5840 5840 5839 5838 5838 5837 5836 5835 5835 5834 5833 5833 5832 5831 5830 5830 5829 5828 5827 5826 5826 5825 5825
5845 5844 5844 5843 5843 5842 5842 5842 5841 5841 5841 5841 5840 5840 5840 5840 5840 5839 5839 5838 5837 5837 5836 5835 5835 5834 5834 5833 5832 5831 5830 5829 5829 5828 5827 5826 5825 5824 5824 5823 5822 5822 5821
5842 5842 5841 5841 5840 5840 5839 5839 5838 5838 5838 5838 5838 5837 5837 5837 5836 5836 5835 5835 5834 5834 5833 5832 5832 5831 5830 5829 5829 5828 5827 5826 5825 5824 5824 5822 5822 5821 5820 5819 5819 5818 5817
5840 5839 5838 5838 5838 5837 5836 5836 5836 5835 5835 5835 5834 5834 5834 5833 5833 5832 5832 5831 5831 5830 5829 5829 5828 5828 5827 5826 5825 5824 5823 5822 5821 5820 5819 5818 5817 5817 5816 5815 5815 5814 5814
5837 5836 5836 5835 5835 5834 5833 5833 5833 5832 5832 5831 5831 5830 5830 5829 5829 5828 5828 5827 5827 5826 5826 5825 5824 5824 5823 5822 5821 5820 5819 5818 5817 5816 5815 5814 5813 5812 5811 5811 5811 5810 5810
5834 5834 5833 5832 5831 5831 5830 5829 5829 5828 5828 5828 5827 5827 5826 5825 5824 5824 5823 5822 5822 5822 5821 5820 5820 5819 5819 5818 5817 5816 5815 5814 5813 5812 5810 5809 5808 5807 5807 5806 5806 5806 5805
5831 5830 5829 5829 5828 5827 5826 5825 5825 5824 5824 5823 5822 5822 5821 5820 5820 5819 5818 5817 5817 5817 5816 5815 5815 5814 5813 5813 5812 5811 5810 5809 5807 5806 5806 5805 5804 5803 5802 5801 5801 5801 5800
5827 5826 5826 5825 5824 5823 5822 5821 5820 5820 5819 5818 5817 5817 5816 5815 5815 5814 5813 5812 5812 5811 5811 5810 5809 5809 5808 5807 5806 5805 5804 5803 5802 5801 5800 5799 5799 5798 5797 5796 5796 5795 5795
5823 5822 5821 5820 5819 5818 5817 5816 5815 5814 5814 5813 5812 5811 5810 5810 5809 5808 5808 5807 5806 5805 5805 5804 5804 5803 5802 5801 5800 5799 5798 5797 5796 5795 5795 5794 5793 5792 5792 5791 5791 5790 5789
5819 5818 5817 5816 5814 5813 5812 5811 5810 5809 5808 5807 5806 5806 5805 5804 5803 5802 5802 5801 5800 5799 5798 5798 5797 5797 5796 5795 5794 5793 5792 5791 5790 5790 5789 5788 5787 5786 5786 5785 5785 5784 5784
5814 5813 5812 5810 5809 5808 5807 5805 5804 5803 5802 5801 5801 5800 5799 5798 5797 5797 5796 5795 5794 5793 5792 5792 5791 5790 5789 5788 5787 5786 5785 5785 5784 5783 5782 5782 5781 5780 5779 5779 5779 5778 5778
5809 5807 5806 5805 5804 5802 5801 5800 5798 5797 5796 5795 5795 5794 5793 5792 5791 5790 5789 5789 5788 5787 5786 5785 5784 5783 5782 5782 5780 5780 5779 5778 5777 5777 5776 5775 5774 5774 5773 5772 5772 5772 5771
5803 5802 5800 5799 5798 5796 5795 5794 5792 5791 5790 5789 5788 5787 5786 5786 5785 5784 5783 5783 5782 5781 5780 5779 5777 5776 5775 5775 5773 5773 5772 5771 5770 5770 5769 5768 5768 5767 5766 5766 5765 5765 5764
5797 5795 5794 5792 5791 5790 5788 5787 5786 5785 5784 5783 5782 5781 5780 5779 5778 5777 5777 5776 5775 5774 5773 5772 5770 5769 5768 5767 5766 5765 5764 5764 5763 5763 5762 5761 5761 5760 5759 5758 5758 5757 5756
5791 5789 5787 5786 5784 5782 5781 5780 5779 5778 5777 5776 5775 5774 5773 5772 5771 5770 5770 5769 5768 5767 5766 5764 5763 5762 5761 5760 5759 5758 5757 5756 5755 5755 5754 5754 5753 5752 5752 5751 5750 5749 5749
5784 5782 5780 5778 5777 5775 5774 5772 5771 5770 5769 5768 5767 5766 5765 5765 5764 5763 5762 5761 5760 5759 5758 5757 5755 5754 5753 5752 5751 5750 5749 5748 5747 5746 5746 5745 5744 5744 5743 5743 5742 5741 5740
5776 5775 5773 5771 5769 5768 5766 5765 5763 5762 5761 5761 5760 5758 5757 5757 5756 5755 5754 5753 5752 5751 5749 5748 5747 5746 5745 5743 5742 5741 5740 5740 5739 5737 5737 5736 5735 5735 5734 5733 5733 5732 5731
5769 5767 5765 5763 5761 5760 5758 5757 5755 5754 5753 5752 5751 5750 5749 5748 5747 5746 5745 5744 5743 5742 5741 5740 5738 5737 5736 5734 5733 5732 5731 5730 5729 5728 5727 5726 5726 5725 5724 5723 5723 5722 5721
5761 5759 5757 5755 5753 5751 5750 5748 5747 5746 5744 5743 5742 5741 5740 5739 5738 5737 5736 5735 5734 5732 5731 5730 5729 5727 5726 5724 5723 5722 5721 5720 5720 5719 5718 5716 5715 5714 5714 5713 5712 5712 5711
5753 5751 5749 5747 5745 5743 5741 5740 5738 5737 5735 5734 5733 5732 5731 5730 5728 5727 5726 5725 5724 5723 5721 5720 5719 5717 5716 5714 5713 5712 5711 5710 5709 5708 5707 5706 5705 5704 5703 5702 5702 5701 5700
5744 5742 5740 5738 5736 5734 5732 5731 5729 5728 5726 5725 5724 5723 5721 5720 5719 5718 5716 5715 5714 5713 5711 5710 5708 5707 5705 5704 5703 5701 5700 5699 5698 5697 5696 5695 5694 5693 5692 5691 5691 5690 5690
5735 5733 5731 5729 5727 5724 5723 5721 5720 5718 5717 5715 5714 5713 5711 5710 5709 5708 5706 5705 5704 5702 5701 5699 5698 5696 5695 5693 5692 5690 5689 5688 5687 5686 5685 5684 5683 5682 5681 5680 5679 5679 5679
5725 5723 5721 5719 5717 5715 5713 5711 5709 5708 5706 5705 5704 5702 5701 5700 5698 5697 5696 5694 5693 5691 5689 5688 5687 5685 5684 5682 5680 5679 5678 5676 5675 5674 5674 5673 5671 5670 5669 5669 5668 5667 5667